"Pseudo-MPEC" for P21OdqR

Created 2023 Nov 30 23:22:07 UT using Find_Orb

Click here for an explanation of pseudo-MPECs

 
 Astrometry: 
     P21OdqR* C2023 11 17Ju6iJqoXDPetBrcAstrometryWDuredacted;-Q[rQ]Hf7lgbh#+F52
     P21OdqR  C2023 11 178N+a-*kL$4clickxgkxe@,$G9M3Q?!m-$x-);:3-@lu3@=yaIocMF52
     P21OdqR  C2023 11 17=VT*-N+T5dRiq6+e#8_og#]-t6nC+1KHhY-O-l*CV62'qF^c+-P/F52
     P21OdqR  C2023 11 17j8)`'2r,4:hereeAforis4MpD\x.L\qXjAZ:$;T_MLk;@W7d*%7TF52
     P21OdqR  C2023 11 17I/j).xVDJh4LcI@gdtMk!r,AOw+explanation3wg`X/H0?mZ-[`F52
     P21OdqR  C2023 11 17J*8nU?_07FQAC7ThvNTiQd/Dyp%_ud@gXu,r_wr6ro'MoIIORW?)F52
     P21OdqR KC2023 11 18u('tR`4'JTn])T/h,'X$v`+FcTu;enDaPK5]2I6#3s`g(Nsc-R:GH21
     P21OdqR KC2023 11 18]`0l5LW^Jrhv.%b1DRiWLOx.XLLe$ff;P-oV?S'7vWy!seEKTVQ]H21
     P21OdqR KC2023 11 18U`;[fZ9RFT2Q'-[5hL1yLfrk2xEBO\Qix2UX%aYZM0vUq1D:]/9cH21

Station data:
(F52) Pan-STARRS 2, Haleakala  (N20.707382 W156.255910)  US/Hawaii.
   Observers J. Bulger, T. Dukes, T. Lowe, A. Schultz, M. Willman. Measurers
   K. Chambers, S. Chastel, T. de Boer, L. Denneau, J. Fairlamb, H.
   Flewelling, M. Huber, C.-C. Lin, E. Magnier, Y. Ramanjooloo, R. Wainscoat,
   R. Weryk. 1.8-m Ritchey-Chrétien + CCD.
(H21) Astronomical Research Observatory, Westfield  (N39.483054 W87.968270)
   US/Illinois.  Observer R. Holmes. Measurers S. Foglia, L. Buzzi, T.
   Linder, R. Holmes. 0.76-m f/3.0 astrograph + CCD0.81-m f/4.0 astrograph +
   CCD0.61-m f/4.5 astrograph + CCD0.40-m f/5.32 astrograph + CCD.

Orbital elements:  P21OdqR
   Perihelion 2024 Jan 29.07329 +/- 105 TT =  1:45:32 (JD 2460338.57329)
Epoch 2023 Nov 18.0 TT = JDT 2460266.5   Earth MOID: 0.6774      AutoNEOCP
M 328.66417348 +/- 45               (J2000 ecliptic)
n   0.43477725 +/- 0.00599          Peri.  225.59200 +/- 51
a   1.72567169 +/- 0.0158           Node   221.64827 +/- 0.25
e   0.0442618 +/- 0.0265            Incl.   27.34819 +/- 0.8
P   2.27/827.99d           H 21.00  G  0.15   U  9.4
q 1.64929022 +/- 0.0497    Q 1.80205315 +/- 0.047
From 9 observations 2023 Nov. 17-18 (19.4 hr); mean residual 0".10
Residuals in arcseconds: 
231117 F52  .03+  .02-    231117 F52  .03+  .02+    231118 H21  .14-  .17+    
231117 F52  .00   .04+    231117 F52  .02-  .01-    231118 H21  .12-  .03+    
231117 F52  .05-  .04-    231117 F52  .02+  .01+    231118 H21  .26+  .20-    

Ephemerides (geocentric):
Date (UTC) HH   RA             Dec           delta  r     elong  mag " sig PA
---- --------  ------------   ------------  ------ ------ -----  --- --------
2023 11 30 23  03 00 22.602   -01 57 41.11  .73445 1.6575 148.5 22.4  101  26
2023 12 01 00  03 00 20.594   -01 58 45.84  .73467 1.6575 148.5 22.4  102  26
2023 12 01 01  03 00 18.590   -01 59 50.49  .73489 1.6575 148.4 22.4  102  26
2023 12 01 02  03 00 16.589   -02 00 55.05  .73510 1.6575 148.4 22.4  103  26
2023 12 01 03  03 00 14.593   -02 01 59.52  .73532 1.6575 148.3 22.4  103  26
2023 12 01 04  03 00 12.600   -02 03 03.91  .73554 1.6575 148.3 22.4  104  26
2023 12 01 05  03 00 10.611   -02 04 08.22  .73576 1.6575 148.2 22.4  104  26
2023 12 01 06  03 00 08.625   -02 05 12.44  .73598 1.6574 148.1 22.4  105  26
2023 12 01 07  03 00 06.643   -02 06 16.58  .73620 1.6574 148.1 22.4  105  26
2023 12 01 08  03 00 04.666   -02 07 20.63  .73642 1.6574 148.0 22.4  106  26
2023 12 01 09  03 00 02.692   -02 08 24.60  .73664 1.6574 148.0 22.4  106  26
2023 12 01 10  03 00 00.721   -02 09 28.48  .73686 1.6574 147.9 22.4  107  26
2023 12 01 11  02 59 58.755   -02 10 32.27  .73708 1.6574 147.9 22.4  108  26
2023 12 01 12  02 59 56.792   -02 11 35.99  .73730 1.6574 147.8 22.4  108  26
2023 12 01 13  02 59 54.833   -02 12 39.61  .73752 1.6574 147.8 22.4  109  26
2023 12 01 14  02 59 52.878   -02 13 43.15  .73774 1.6574 147.7 22.4  109  26
2023 12 01 15  02 59 50.926   -02 14 46.61  .73797 1.6573 147.7 22.4  110  26
2023 12 01 16  02 59 48.979   -02 15 49.98  .73819 1.6573 147.6 22.4  110  26
2023 12 01 17  02 59 47.035   -02 16 53.26  .73841 1.6573 147.6 22.4  111  26
2023 12 01 18  02 59 45.095   -02 17 56.46  .73863 1.6573 147.5 22.4  111  26
2023 12 01 19  02 59 43.159   -02 18 59.58  .73886 1.6573 147.5 22.4  112  26
2023 12 01 20  02 59 41.227   -02 20 02.61  .73908 1.6573 147.4 22.4  112  26
2023 12 01 21  02 59 39.298   -02 21 05.55  .73931 1.6573 147.4 22.4  113  26
2023 12 01 22  02 59 37.374   -02 22 08.41  .73953 1.6573 147.3 22.4  113  25
2023 12 01 23  02 59 35.453   -02 23 11.19  .73976 1.6573 147.3 22.4  114  25
2023 12 02 00  02 59 33.536   -02 24 13.88  .73998 1.6572 147.2 22.4  114  25
2023 12 02 01  02 59 31.623   -02 25 16.48  .74021 1.6572 147.1 22.4  115  25
2023 12 02 02  02 59 29.713   -02 26 19.00  .74043 1.6572 147.1 22.4  116  25
2023 12 02 03  02 59 27.808   -02 27 21.43  .74066 1.6572 147.0 22.4  116  25
2023 12 02 04  02 59 25.906   -02 28 23.77  .74089 1.6572 147.0 22.4  117  25
2023 12 02 05  02 59 24.009   -02 29 26.04  .74111 1.6572 146.9 22.4  117  25
2023 12 02 06  02 59 22.115   -02 30 28.21  .74134 1.6572 146.9 22.4  118  25
2023 12 02 07  02 59 20.225   -02 31 30.30  .74157 1.6572 146.8 22.4  118  25
2023 12 02 08  02 59 18.339   -02 32 32.31  .74180 1.6572 146.8 22.4  119  25
2023 12 02 09  02 59 16.457   -02 33 34.22  .74203 1.6571 146.7 22.4  119  25
2023 12 02 10  02 59 14.578   -02 34 36.06  .74225 1.6571 146.7 22.4  120  25
2023 12 02 11  02 59 12.704   -02 35 37.80  .74248 1.6571 146.6 22.4  120  25
2023 12 02 12  02 59 10.833   -02 36 39.47  .74271 1.6571 146.6 22.4  121  25
2023 12 02 13  02 59 08.967   -02 37 41.04  .74294 1.6571 146.5 22.4  121  25
2023 12 02 14  02 59 07.104   -02 38 42.53  .74317 1.6571 146.5 22.4  122  25
2023 12 02 15  02 59 05.245   -02 39 43.94  .74340 1.6571 146.4 22.4  122  25
2023 12 02 16  02 59 03.390   -02 40 45.26  .74363 1.6571 146.4 22.4  123  25
2023 12 02 17  02 59 01.539   -02 41 46.49  .74387 1.6571 146.3 22.4  124  25
2023 12 02 18  02 58 59.692   -02 42 47.64  .74410 1.6570 146.3 22.4  124  25
2023 12 02 19  02 58 57.848   -02 43 48.70  .74433 1.6570 146.2 22.4  125  25
2023 12 02 20  02 58 56.009   -02 44 49.67  .74456 1.6570 146.2 22.4  125  25
2023 12 02 21  02 58 54.174   -02 45 50.56  .74479 1.6570 146.1 22.4  126  25
2023 12 02 22  02 58 52.342   -02 46 51.37  .74503 1.6570 146.1 22.4  126  25